Hourly Data Report for October 26, 2014

All times are specified in Local Standard Time (LST). Add 1 hour to adjust for Daylight Saving Time where and when it is observed.

WINNIPEG A CS
MANITOBA

49°55'00.000" N
97°14'58.000" W
238.70 m
502S001
71849
XWG

Download Data

Hourly Data (October 2014)
Hourly Data Report for October 26, 2014
Temp Definition
°C
Dew Point Temp Definition
°C
Rel Hum Definition
%
Wind Dir Definition
10's deg

Wind Spd Definition
km/h
Visibility Definition
km
Stn Press Definition
kPa
Hmdx Definition


Wind Chill Definition


Weather Definition


TIME
00:00 -1.0 -3.6 82   0   98.59     LegendNANA
01:00 -0.2 -3.3 79 7 5   98.56   -2 LegendNANA
02:00 0.5 -2.1 83 10 7   98.54     LegendNANA
03:00 1.5 -1.6 80 9 14   98.50     LegendNANA
04:00 1.5 -1.5 81 13 14   98.47     LegendNANA
05:00 2.6 -1.2 76 12 19   98.37     LegendNANA
06:00 2.5 -1.4 76 12 15   98.32     LegendNANA
07:00 2.1 -1.7 76 12 18   98.24     LegendNANA
08:00 3.1 -1.4 73 12 14   98.25     LegendNANA
09:00 4.3 -1.1 68 15 18   98.20     LegendNANA
10:00 7.5 0.2 60 15 20   98.08     LegendNANA
11:00 9.4 0.0 52 14 22   97.93     LegendNANA
12:00 12.4 -0.2 42 14 28   97.74     LegendNANA
13:00 13.0 -0.1 41 12 29   97.59     LegendNANA
14:00 13.1 -0.6 39 12 28   97.44     LegendNANA
15:00 13.1 -0.9 38 12 37   97.15     LegendNANA
16:00 12.8 -1.6 37 14 23   97.26     LegendNANA
17:00 12.4 -0.8 40 11 20   97.25     LegendNANA
18:00 11.8 -0.2 43 11 21   97.20     LegendNANA
19:00 10.2 -0.2 48 10 19   97.17     LegendNANA
20:00 9.1 1.1 57 10 19   97.11     LegendNANA
21:00 9.1 1.2 58 10 26   96.99     LegendNANA
22:00 8.4 1.2 60 16 21   96.90     LegendNANA
23:00 8.4 0.7 59 14 22   96.87     LegendNANA

Notes on Data Quality.

Legend

  • E = Estimated
  • M = Missing
  • NA = Not Available
  • ‡ = Partner data that is not subject to review by the National Climate Archives
Date modified: